This is the latest recevied weather packets stored in our database for station/object E20EHQ-13. If no packets are shown the sender has not sent any weather packets the latest 10 day(s).
| Time | Temp. | Humidity | Pressure | Rain* | Wind** | Luminosity | Snow |
|---|---|---|---|---|---|---|---|
| 1778095762 | 29.44° C | 88% | 1006.5 hPa | 0 mm | - | 1 W/m² | - |
| 1778095462 | 29.44° C | 88% | 1006.6 hPa | 0 mm | - | 1 W/m² | - |
| 1778093662 | 29.44° C | 87% | 1006.6 hPa | 0 mm | - | 1 W/m² | - |
| 1778093362 | 29.44° C | 87% | 1006.6 hPa | 0 mm | - | 1 W/m² | - |
| 1778092462 | 29.44° C | 86% | 1006.6 hPa | 0 mm | - | 1 W/m² | - |
| 1778092162 | 29.44° C | 86% | 1006.7 hPa | 0 mm | - | 1 W/m² | - |
| 1778077379 | 30.56° C | 83% | 1007.3 hPa | 0 mm | - | 1 W/m² | - |
| 1778074380 | 30.56° C | 82% | 1006.8 hPa | 0 mm | - | 1 W/m² | - |
| 1778072879 | 30.56° C | 81% | 1006.6 hPa | 0 mm | - | 1 W/m² | - |
| 1778070480 | 30.56° C | 80% | 1006.4 hPa | 0 mm | - | 1 W/m² | - |
| 1778059679 | 32.22° C | 72% | 1004.7 hPa | 0 mm | - | 224 W/m² | - |
| 1778058180 | 31.67° C | 73% | 1004.7 hPa | 0 mm | - | 246 W/m² | - |
| 1778057880 | 31.67° C | 73% | 1004.8 hPa | 0 mm | - | 246 W/m² | - |
| 1778056679 | 32.22° C | 71% | 1004.8 hPa | 0 mm | - | 234 W/m² | - |
| 1778056079 | 32.78° C | 71% | 1004.9 hPa | 0 mm | - | 224 W/m² | - |
| 1778055479 | 32.78° C | 70% | 1005 hPa | 0 mm | - | 277 W/m² | - |
| 1778054879 | 32.78° C | 69% | 1005.1 hPa | 0 mm | - | 323 W/m² | - |
| 1778054280 | 33.33° C | 67% | 1005.3 hPa | 0 mm | - | 403 W/m² | - |
| 1778053079 | 34.44° C | 66% | 1005.5 hPa | 0 mm | - | 385 W/m² | - |
| 1778052479 | 34.44° C | 63% | 1005.7 hPa | 0 mm | - | 614 W/m² | - |
| 1778052179 | 34.44° C | 64% | 1005.7 hPa | 0 mm | - | 889 W/m² | - |
| 1778051879 | 33.89° C | 64% | 1005.7 hPa | 0 mm | - | 776 W/m² | - |
| 1778051279 | 34.44° C | 63% | 1005.8 hPa | 0 mm | - | 256 W/m² | - |
| 1778050979 | 34.44° C | 63% | 1006.1 hPa | 0 mm | - | 242 W/m² | - |
| 1778050679 | 34.44° C | 63% | 1006.1 hPa | 0 mm | - | 267 W/m² | - |
* Rain latest hour (hover to see other rain measurements)
** Current wind speed in m/s (hover to see current wind gust speed)